Mojave, CA

8:12 PM PDT on April 19, 2018 (GMT -0700)
Mojave

Weather History for KMHV - June, 2013

Change the Weather History Date:

Friday, June 14, 2013

  Actual Average Record
Temperature  
Mean Temperature 76 °F -  
Max Temperature 91 °F 87 °F 102 °F (1966)
Min Temperature 62 °F 60 °F 40 °F (1970)
Cooling Degree Days 12    
Growing Degree Days 26 (Base 50)    
Moisture  
Dew Point 27 °F    
Average Humidity 19    
Maximum Humidity 28    
Minimum Humidity 5    
Precipitation  
Precipitation 0.00 in - - ()
Sea Level Pressure  
Sea Level Pressure 29.90 in    
Wind  
Wind Speed 15 mph (West)    
Max Wind Speed 25 mph    
Max Gust Speed 33 mph    
Visibility 10 miles    
Events      
Averages and records for this station are not official NWS values.
T = Trace of Precipitation, MM = Missing Value Source: NWS Daily Summary

Daily Weather History Graph

Daily Weather History Graph

Search for Another Location

Airport or City:

Astronomy

Jun. 14, 2013 Rise Set
Actual Time 5:37 AM PDT 8:08 PM PDT
Civil Twilight 5:08 AM PDT 8:37 PM PDT
Nautical Twilight 4:31 AM PDT 9:14 PM PDT
Astronomical Twilight 3:51 AM PDT 9:55 PM PDT
Moon 11:06 AM PDT (6/14) 11:58 PM PDT (6/14)
Length of Visible Light 15h 29m
Length of Day
14h 30m
Waxing Crescent, 31% of the Moon is Illuminated
Jun 14
Waxing Crescent
Jun 16
First Quarter
Jun 23
Full
Jun 29
Last Quarter
Jul 8
New

Hourly Weather History & Observations

Time (PDT) Temp. Dew Point Humidity Pressure Visibility Wind Dir Wind Speed Gust Speed Precip Events Conditions
12:15 AM 68.0 °F 28.4 °F 23% 29.92 in 10.0 mi WNW 25.3 mph 29.9 mph N/A   Clear
12:35 AM 68.0 °F 26.6 °F 21% 29.93 in 10.0 mi WNW 18.4 mph 32.2 mph N/A   Clear
12:55 AM 68.0 °F 26.6 °F 21% 29.92 in 10.0 mi WNW 21.9 mph 27.6 mph N/A   Clear
1:15 AM 68.0 °F 26.6 °F 21% 29.92 in 10.0 mi WNW 20.7 mph 31.1 mph N/A   Clear
1:35 AM 68.0 °F 28.4 °F 23% 29.92 in 10.0 mi WNW 21.9 mph 25.3 mph N/A   Clear
1:55 AM 68.0 °F 28.4 °F 23% 29.91 in 10.0 mi WNW 21.9 mph 28.8 mph N/A   Clear
2:15 AM 68.0 °F 28.4 °F 23% 29.91 in 10.0 mi WNW 19.6 mph 27.6 mph N/A   Clear
2:35 AM 68.0 °F 28.4 °F 23% 29.92 in 10.0 mi NNW 16.1 mph - N/A   Clear
2:55 AM 68.0 °F 28.4 °F 23% 29.92 in 10.0 mi WNW 16.1 mph - N/A   Clear
3:15 AM 68.0 °F 28.4 °F 23% 29.92 in 10.0 mi WNW 11.5 mph 25.3 mph N/A   Clear
3:35 AM 62.6 °F 24.8 °F 24% 29.93 in 10.0 mi WNW 8.1 mph - N/A   Clear
3:55 AM 66.2 °F 28.4 °F 24% 29.92 in 10.0 mi NW 13.8 mph - N/A   Clear
4:15 AM 66.2 °F 30.2 °F 26% 29.91 in 10.0 mi West 18.4 mph 23.0 mph N/A   Clear
4:35 AM 66.2 °F 32.0 °F 28% 29.92 in 10.0 mi WNW 12.7 mph 20.7 mph N/A   Clear
4:55 AM 66.2 °F 30.2 °F 26% 29.92 in 10.0 mi NW 13.8 mph 17.3 mph N/A   Clear
5:15 AM 66.2 °F 28.4 °F 24% 29.93 in 10.0 mi NW 9.2 mph - N/A   Clear
5:35 AM 64.4 °F 28.4 °F 26% 29.94 in 10.0 mi NW 5.8 mph - N/A   Clear
5:55 AM 62.6 °F 24.8 °F 24% 29.94 in 9.0 mi NNW 6.9 mph - N/A   Clear
6:15 AM 62.6 °F 26.6 °F 26% 29.95 in 10.0 mi NW 5.8 mph - N/A   Clear
6:35 AM 64.4 °F 28.4 °F 26% 29.95 in 10.0 mi NW 3.5 mph - N/A   Clear
6:55 AM 68.0 °F 28.4 °F 23% 29.95 in 10.0 mi NW 3.5 mph - N/A   Clear
7:15 AM 71.6 °F 28.4 °F 20% 29.96 in 9.0 mi NNE 3.5 mph - N/A   Clear
7:35 AM 71.6 °F 26.6 °F 19% 29.97 in 9.0 mi East 3.5 mph - N/A   Clear
7:55 AM 71.6 °F 28.4 °F 20% 29.97 in 10.0 mi East 4.6 mph - N/A   Clear
12:15 PM 84.2 °F 17.6 °F 8% 29.94 in 10.0 mi NE 5.8 mph - N/A   Clear
12:35 PM 84.2 °F 14.0 °F 7% 29.93 in 10.0 mi SE 9.2 mph - N/A   Clear
12:55 PM 86.0 °F 14.0 °F 7% 29.93 in 10.0 mi ESE 5.8 mph - N/A   Clear
1:15 PM 86.0 °F 14.0 °F 7% 29.92 in 10.0 mi SE 3.5 mph - N/A   Clear
1:35 PM 86.0 °F 15.8 °F 7% 29.91 in 10.0 mi SSW 4.6 mph - N/A   Clear
1:55 PM 87.8 °F 14.0 °F 6% 29.90 in 10.0 mi SSE 3.5 mph - N/A   Clear
2:15 PM 87.8 °F 10.4 °F 6% 29.89 in 10.0 mi SSE 5.8 mph - N/A   Clear
2:35 PM 89.6 °F 12.2 °F 6% 29.89 in 10.0 mi SSW 6.9 mph - N/A   Clear
2:55 PM 89.6 °F 12.2 °F 6% 29.88 in 10.0 mi SE 5.8 mph - N/A   Clear
3:15 PM 89.6 °F 12.2 °F 6% 29.87 in 10.0 mi South 8.1 mph - N/A   Clear
3:35 PM 91.4 °F 12.2 °F 5% 29.86 in 10.0 mi SW 11.5 mph 18.4 mph N/A   Clear
3:55 PM 91.4 °F 17.6 °F 7% 29.86 in 10.0 mi SSW 11.5 mph 21.9 mph N/A   Clear
4:15 PM 91.4 °F 14.0 °F 6% 29.84 in 10.0 mi SW 20.7 mph 29.9 mph N/A   Clear
4:35 PM 91.4 °F 19.4 °F 7% 29.85 in 10.0 mi SW 17.3 mph 26.5 mph N/A   Clear
4:55 PM 91.4 °F 17.6 °F 7% 29.85 in 10.0 mi SSW 18.4 mph 24.2 mph N/A   Clear
5:15 PM 89.6 °F 23.0 °F 9% 29.84 in 10.0 mi SSW 19.6 mph 26.5 mph N/A   Clear
5:35 PM 89.6 °F 32.0 °F 13% 29.84 in 10.0 mi West 17.3 mph 33.4 mph N/A   Clear
5:55 PM 86.0 °F 35.6 °F 17% 29.84 in 10.0 mi West 20.7 mph - N/A   Clear
6:15 PM 84.2 °F 37.4 °F 19% 29.85 in 10.0 mi West 18.4 mph 23.0 mph N/A   Clear
6:35 PM 84.2 °F 37.4 °F 19% 29.85 in 10.0 mi West 17.3 mph 21.9 mph N/A   Clear
6:55 PM 82.4 °F 37.4 °F 20% 29.85 in 10.0 mi WNW 17.3 mph - N/A   Clear
7:15 PM 80.6 °F 37.4 °F 21% 29.85 in 10.0 mi West 20.7 mph 25.3 mph N/A   Clear
7:35 PM 80.6 °F 37.4 °F 21% 29.86 in 10.0 mi West 18.4 mph - N/A   Clear
7:55 PM 77.0 °F 35.6 °F 22% 29.86 in 10.0 mi West 18.4 mph 23.0 mph N/A   Clear
8:15 PM 77.0 °F 35.6 °F 22% 29.87 in 10.0 mi West 17.3 mph 20.7 mph N/A   Clear
8:35 PM 75.2 °F 35.6 °F 24% 29.87 in 10.0 mi West 13.8 mph 17.3 mph N/A   Clear
8:55 PM 75.2 °F 35.6 °F 24% 29.87 in 10.0 mi West 19.6 mph 26.5 mph N/A   Clear
9:15 PM 75.2 °F 37.4 °F 25% 29.87 in 10.0 mi West 20.7 mph 26.5 mph N/A   Clear
9:35 PM 73.4 °F 35.6 °F 25% 29.88 in 10.0 mi West 16.1 mph 32.2 mph N/A   Clear
9:55 PM 73.4 °F 35.6 °F 25% 29.88 in 10.0 mi West 16.1 mph 24.2 mph N/A   Clear
10:15 PM 73.4 °F 35.6 °F 25% 29.89 in 10.0 mi West 12.7 mph 20.7 mph N/A   Clear
10:35 PM 71.6 °F 35.6 °F 27% 29.89 in 10.0 mi SW 11.5 mph - N/A   Clear
10:55 PM 71.6 °F 35.6 °F 27% 29.89 in 10.0 mi SSW 11.5 mph 18.4 mph N/A   Clear
11:15 PM 73.4 °F 35.6 °F 25% 29.89 in 10.0 mi SSW 11.5 mph 19.6 mph N/A   Clear
11:35 PM 73.4 °F 35.6 °F 25% 29.89 in 10.0 mi WSW 6.9 mph - N/A   Clear
11:55 PM 71.6 °F 35.6 °F 27% 29.88 in 10.0 mi WSW 11.5 mph 21.9 mph N/A   Clear